TimeCST,TemperatureF,Dew PointF,Humidity,Sea Level PressureIn,VisibilityMPH,Wind Direction,Wind SpeedMPH,Gust SpeedMPH,PrecipitationIn,Events,Conditions,WindDirDegrees,DateUTC
12:35 AM,39.2,33.8,81,30.00,10.0,SSE,4.6,-,N/A,,Overcast,150,2013-02-07 06:35:00
12:55 AM,39.2,33.8,81,30.00,7.0,SSE,6.9,-,N/A,Rain,Light Rain,150,2013-02-07 06:55:00
1:15 AM,39.2,33.8,81,29.99,7.0,SSE,5.8,-,N/A,Rain,Rain,150,2013-02-07 07:15:00
1:35 AM,39.2,33.8,81,29.98,7.0,SSE,6.9,-,N/A,,Light Drizzle,150,2013-02-07 07:35:00
1:55 AM,39.2,33.8,81,29.98,7.0,SSE,6.9,-,N/A,,Overcast,160,2013-02-07 07:55:00
2:15 AM,37.4,33.8,87,29.98,7.0,SSE,6.9,-,N/A,,Overcast,160,2013-02-07 08:15:00
2:35 AM,37.4,33.8,87,29.97,3.0,SSE,5.8,-,N/A,,Overcast,150,2013-02-07 08:35:00
2:55 AM,37.4,33.8,87,29.97,5.0,SSE,5.8,-,0.01,,Overcast,160,2013-02-07 08:55:00
3:15 AM,37.4,33.8,87,29.97,4.0,SSE,5.8,-,0.01,,Overcast,150,2013-02-07 09:15:00
3:35 AM,37.4,33.8,87,29.97,3.0,SSE,3.5,-,0.04,,Overcast,160,2013-02-07 09:35:00
3:55 AM,37.4,33.8,87,29.97,3.0,Calm,Calm,-,0.06,,Overcast,0,2013-02-07 09:55:00
4:15 AM,37.4,33.8,87,29.96,3.0,Calm,Calm,-,0.01,,Overcast,0,2013-02-07 10:15:00
4:35 AM,37.4,33.8,87,29.95,3.0,SE,3.5,-,0.03,,Overcast,130,2013-02-07 10:35:00
4:55 AM,37.4,33.8,87,29.95,3.0,SE,4.6,-,0.03,,Overcast,140,2013-02-07 10:55:00
5:15 AM,37.4,33.8,87,29.95,4.0,South,6.9,-,N/A,,Overcast,170,2013-02-07 11:15:00
5:35 AM,37.4,33.8,87,29.95,4.0,SSE,4.6,-,N/A,,Overcast,150,2013-02-07 11:35:00
5:55 AM,37.4,35.6,93,29.94,7.0,SSE,5.8,-,N/A,,Overcast,160,2013-02-07 11:55:00
6:15 AM,37.4,33.8,87,29.94,7.0,SSE,4.6,-,N/A,,Overcast,160,2013-02-07 12:15:00
6:35 AM,37.4,33.8,87,29.94,5.0,SE,3.5,-,N/A,,Overcast,140,2013-02-07 12:35:00
6:55 AM,37.4,33.8,87,29.94,5.0,SSE,4.6,-,0.01,,Overcast,150,2013-02-07 12:55:00
7:15 AM,37.4,33.8,87,29.94,4.0,Calm,Calm,-,N/A,,Overcast,0,2013-02-07 13:15:00
7:35 AM,37.4,33.8,87,29.94,4.0,Calm,Calm,-,0.01,,Overcast,0,2013-02-07 13:35:00
7:55 AM,37.4,33.8,87,29.94,3.0,ESE,3.5,-,0.02,,Overcast,120,2013-02-07 13:55:00
8:15 AM,37.4,33.8,87,29.95,2.5,Calm,Calm,-,0.02,,Overcast,0,2013-02-07 14:15:00
8:35 AM,37.4,33.8,87,29.94,2.5,ESE,3.5,-,0.05,,Overcast,110,2013-02-07 14:35:00
8:55 AM,37.4,33.8,87,29.95,2.5,Calm,Calm,-,0.07,,Overcast,0,2013-02-07 14:55:00
9:15 AM,37.4,33.8,87,29.95,2.0,Calm,Calm,-,0.02,,Overcast,0,2013-02-07 15:15:00
9:35 AM,37.4,33.8,87,29.94,2.0,Calm,Calm,-,0.03,,Overcast,0,2013-02-07 15:35:00
9:55 AM,37.4,33.8,87,29.94,1.8,Calm,Calm,-,0.05,,Overcast,0,2013-02-07 15:55:00
10:15 AM,37.4,33.8,87,29.94,2.0,ESE,3.5,-,0.04,,Overcast,120,2013-02-07 16:15:00
10:35 AM,37.4,33.8,87,29.94,1.8,SE,3.5,-,0.07,,Overcast,130,2013-02-07 16:35:00
10:55 AM,37.4,33.8,87,29.94,1.2,Calm,Calm,-,0.09,,Overcast,0,2013-02-07 16:55:00
11:15 AM,37.4,33.8,87,29.94,1.2,Calm,Calm,-,0.02,Rain,Light Rain,0,2013-02-07 17:15:00
11:35 AM,37.4,35.6,93,29.94,1.2,Calm,Calm,-,0.04,Rain,Light Rain,0,2013-02-07 17:35:00
11:55 AM,37.4,35.6,93,29.92,1.2,Calm,Calm,-,0.05,Rain,Light Rain,0,2013-02-07 17:55:00
12:15 PM,37.4,35.6,93,29.91,1.2,Calm,Calm,-,0.01,Rain,Light Rain,0,2013-02-07 18:15:00
12:35 PM,37.4,35.6,93,29.91,1.2,Calm,Calm,-,0.03,Rain,Light Rain,0,2013-02-07 18:35:00
12:55 PM,37.4,35.6,93,29.91,1.5,Calm,Calm,-,0.04,Rain,Light Rain,0,2013-02-07 18:55:00
1:15 PM,37.4,35.6,93,29.91,1.5,Calm,Calm,-,0.02,Rain,Light Rain,0,2013-02-07 19:15:00
1:35 PM,37.4,35.6,93,29.90,1.2,Calm,Calm,-,0.03,Rain,Rain,0,2013-02-07 19:35:00
1:55 PM,39.2,35.6,87,29.89,1.5,Calm,Calm,-,0.05,Rain,Light Rain,0,2013-02-07 19:55:00
2:15 PM,39.2,35.6,87,29.88,2.5,Calm,Calm,-,0.01,Rain,Light Rain,0,2013-02-07 20:15:00
2:35 PM,39.2,35.6,87,29.88,2.5,Calm,Calm,-,0.02,Rain,Rain,0,2013-02-07 20:35:00
2:55 PM,39.2,35.6,87,29.88,4.0,Calm,Calm,-,0.03,Rain,Rain,0,2013-02-07 20:55:00
3:15 PM,39.2,35.6,87,29.89,3.0,NNW,3.5,-,N/A,,Drizzle,330,2013-02-07 21:15:00
3:35 PM,39.2,35.6,87,29.91,5.0,NW,9.2,-,N/A,Rain,Rain,320,2013-02-07 21:35:00
3:55 PM,39.2,35.6,87,29.91,5.0,NW,11.5,-,0.01,Rain,Light Rain,320,2013-02-07 21:55:00
4:15 PM,39.2,35.6,87,29.91,7.0,NNW,6.9,-,0.01,Rain,Rain,340,2013-02-07 22:15:00
4:35 PM,37.4,35.6,93,29.91,7.0,North,6.9,-,0.01,Rain,Light Rain,350,2013-02-07 22:35:00
4:55 PM,37.4,33.8,87,29.92,7.0,NNW,5.8,-,0.01,Rain,Light Rain,330,2013-02-07 22:55:00
5:15 PM,37.4,33.8,87,29.94,7.0,NW,10.4,-,N/A,,Overcast,310,2013-02-07 23:15:00
5:35 PM,37.4,33.8,87,29.95,7.0,NW,9.2,-,N/A,,Overcast,320,2013-02-07 23:35:00
5:55 PM,37.4,33.8,87,29.97,7.0,NW,11.5,-,N/A,,Overcast,310,2013-02-07 23:55:00
6:15 PM,37.4,33.8,87,29.98,10.0,NW,10.4,-,N/A,,Overcast,320,2013-02-08 00:15:00
6:35 PM,37.4,33.8,87,29.99,10.0,NW,13.8,19.6,0.01,,Overcast,320,2013-02-08 00:35:00
6:55 PM,37.4,33.8,87,30.00,10.0,NNW,13.8,18.4,0.01,,Overcast,330,2013-02-08 00:55:00
7:15 PM,37.4,33.8,87,30.01,7.0,NW,12.7,-,N/A,,Overcast,320,2013-02-08 01:15:00
7:35 PM,35.6,33.8,93,30.02,5.0,NNW,12.7,-,N/A,,Overcast,330,2013-02-08 01:35:00
7:55 PM,35.6,33.8,93,30.03,3.0,NW,12.7,19.6,N/A,,Overcast,320,2013-02-08 01:55:00
8:15 PM,35.6,32.0,87,30.03,2.5,NNW,13.8,18.4,N/A,,Overcast,340,2013-02-08 02:15:00
8:35 PM,35.6,32.0,87,30.04,2.5,NW,11.5,-,N/A,,Overcast,320,2013-02-08 02:35:00
8:55 PM,35.6,30.2,81,30.05,2.5,NNW,12.7,18.4,N/A,,Overcast,330,2013-02-08 02:55:00
9:15 PM,33.8,30.2,87,30.06,2.5,NNW,15.0,-,N/A,,Overcast,330,2013-02-08 03:15:00
9:35 PM,33.8,30.2,87,30.07,2.5,NW,12.7,21.9,N/A,,Overcast,320,2013-02-08 03:35:00
9:55 PM,33.8,30.2,87,30.08,2.5,NNW,13.8,-,N/A,,Overcast,330,2013-02-08 03:55:00
10:15 PM,33.8,30.2,87,30.08,3.0,NW,11.5,-,N/A,,Overcast,320,2013-02-08 04:15:00
10:35 PM,33.8,30.2,87,30.08,4.0,NNW,11.5,-,N/A,,Overcast,330,2013-02-08 04:35:00
10:55 PM,33.8,30.2,87,30.09,4.0,NNW,11.5,18.4,N/A,,Overcast,330,2013-02-08 04:55:00
11:15 PM,33.8,30.2,87,30.09,4.0,NNW,11.5,-,N/A,,Overcast,340,2013-02-08 05:15:00
11:35 PM,33.8,30.2,87,30.09,5.0,NNW,12.7,16.1,N/A,,Overcast,340,2013-02-08 05:35:00
11:55 PM,33.8,30.2,87,30.10,5.0,NNW,10.4,-,N/A,,Overcast,330,2013-02-08 05:55:00